Time,TemperatureF,DewpointF,PressureIn,WindDirection,WindDirectionDegrees,WindSpeedMPH,WindSpeedGustMPH,Humidity,HourlyPrecipIn,Conditions,Clouds,dailyrainin,SoftwareType,DateUTC
2013-01-25 00:09:00,19.1,10.0,30.44,ESE,117,0.0,-999.0,69,-99.99,,,0.00,weatherlink.com 1.10,2013-01-25 05:09:00,
2013-01-25 00:23:00,19.1,10.0,30.44,ESE,109,0.0,-999.0,69,-99.99,,,0.00,weatherlink.com 1.10,2013-01-25 05:23:00,
2013-01-25 00:39:00,19.1,10.0,30.43,ESE,109,0.0,-999.0,69,-99.99,,,0.00,weatherlink.com 1.10,2013-01-25 05:39:00,
2013-01-25 00:54:00,19.2,11.0,30.42,ESE,112,1.0,-999.0,69,-99.99,,,0.00,weatherlink.com 1.10,2013-01-25 05:54:00,
2013-01-25 01:08:00,19.2,11.0,30.39,ESE,122,0.0,-999.0,69,-99.99,,,0.00,weatherlink.com 1.10,2013-01-25 06:08:00,
2013-01-25 01:24:00,19.2,11.0,30.38,East,99,1.0,-999.0,69,-99.99,,,0.00,weatherlink.com 1.10,2013-01-25 06:24:00,
2013-01-25 01:39:00,19.2,11.0,30.38,ESE,119,1.0,-999.0,69,-99.99,,,0.00,weatherlink.com 1.10,2013-01-25 06:39:00,
2013-01-25 01:53:00,19.3,11.0,30.39,ESE,117,0.0,-999.0,69,-99.99,,,0.00,weatherlink.com 1.10,2013-01-25 06:53:00,
2013-01-25 02:09:00,19.4,11.0,30.39,East,94,2.0,-999.0,69,-99.99,,,0.00,weatherlink.com 1.10,2013-01-25 07:09:00,
2013-01-25 02:23:00,19.4,11.0,30.37,East,95,2.0,-999.0,69,-99.99,,,0.00,weatherlink.com 1.10,2013-01-25 07:23:00,
2013-01-25 02:38:00,19.4,11.0,30.37,ESE,104,0.0,-999.0,69,-99.99,,,0.00,weatherlink.com 1.10,2013-01-25 07:38:00,
2013-01-25 02:54:00,19.5,11.0,30.37,ESE,115,0.0,-999.0,69,-99.99,,,0.00,weatherlink.com 1.10,2013-01-25 07:54:00,
2013-01-25 03:09:00,19.6,11.0,30.37,ESE,123,3.0,-999.0,70,-99.99,,,0.00,weatherlink.com 1.10,2013-01-25 08:09:00,
2013-01-25 03:24:00,19.7,11.0,30.37,ESE,115,0.0,-999.0,69,-99.99,,,0.00,weatherlink.com 1.10,2013-01-25 08:24:00,
2013-01-25 03:39:00,19.9,11.0,30.36,SE,132,1.0,-999.0,69,-99.99,,,0.00,weatherlink.com 1.10,2013-01-25 08:39:00,
2013-01-25 03:54:00,19.9,11.0,30.34,SE,130,1.0,-999.0,69,-99.99,,,0.00,weatherlink.com 1.10,2013-01-25 08:54:00,
2013-01-25 04:09:00,19.8,11.0,30.33,ESE,107,3.0,-999.0,69,-99.99,,,0.00,weatherlink.com 1.10,2013-01-25 09:09:00,
2013-01-25 04:23:00,19.8,11.0,30.31,ESE,116,0.0,-999.0,69,-99.99,,,0.00,weatherlink.com 1.10,2013-01-25 09:23:00,
2013-01-25 04:38:00,19.8,11.0,30.29,East,100,3.0,-999.0,69,-99.99,,,0.00,weatherlink.com 1.10,2013-01-25 09:38:00,
2013-01-25 04:54:00,19.8,11.0,30.28,ESE,121,1.0,-999.0,68,-99.99,,,0.00,weatherlink.com 1.10,2013-01-25 09:54:00,
2013-01-25 05:09:00,19.8,11.0,30.27,ESE,111,0.0,-999.0,68,-99.99,,,0.00,weatherlink.com 1.10,2013-01-25 10:09:00,
2013-01-25 05:23:00,19.6,11.0,30.27,ESE,123,1.0,-999.0,68,-99.99,,,0.00,weatherlink.com 1.10,2013-01-25 10:23:00,
2013-01-25 05:39:00,19.6,11.0,30.25,SE,125,0.0,-999.0,68,-99.99,,,0.00,weatherlink.com 1.10,2013-01-25 10:39:00,
2013-01-25 05:54:00,19.5,11.0,30.24,ESE,118,3.0,-999.0,69,-99.99,,,0.00,weatherlink.com 1.10,2013-01-25 10:54:00,
2013-01-25 06:09:00,19.5,11.0,30.23,SE,124,0.0,-999.0,69,-99.99,,,0.00,weatherlink.com 1.10,2013-01-25 11:09:00,
2013-01-25 06:23:00,19.5,11.0,30.23,East,96,0.0,-999.0,69,-99.99,,,0.00,weatherlink.com 1.10,2013-01-25 11:23:00,
2013-01-25 06:39:00,19.5,11.0,30.21,ESE,119,1.0,-999.0,69,-99.99,,,0.00,weatherlink.com 1.10,2013-01-25 11:39:00,
2013-01-25 06:53:00,19.5,11.0,30.19,SE,130,1.0,-999.0,69,-99.99,,,0.00,weatherlink.com 1.10,2013-01-25 11:53:00,
2013-01-25 07:08:00,19.6,11.0,30.18,SE,133,0.0,-999.0,69,-99.99,,,0.00,weatherlink.com 1.10,2013-01-25 12:08:00,
2013-01-25 07:23:00,19.6,11.0,30.19,ESE,119,1.0,-999.0,69,-99.99,,,0.00,weatherlink.com 1.10,2013-01-25 12:23:00,
2013-01-25 07:39:00,19.8,11.0,30.18,SE,134,2.0,-999.0,69,-99.99,,,0.00,weatherlink.com 1.10,2013-01-25 12:39:00,
2013-01-25 07:54:00,19.4,11.0,30.17,SE,146,1.0,-999.0,69,-99.99,,,0.00,weatherlink.com 1.10,2013-01-25 12:54:00,
2013-01-25 08:09:00,18.6,10.0,30.17,South,172,0.0,-999.0,70,-99.99,,,0.00,weatherlink.com 1.10,2013-01-25 13:09:00,
2013-01-25 08:24:00,18.2,10.0,30.15,SE,124,0.0,-999.0,71,-99.99,,,0.00,weatherlink.com 1.10,2013-01-25 13:24:00,
2013-01-25 08:39:00,18.1,11.0,30.16,SE,143,1.0,-999.0,73,-99.99,,,0.00,weatherlink.com 1.10,2013-01-25 13:39:00,
2013-01-25 08:54:00,18.1,11.0,30.15,SSE,151,2.0,-999.0,74,-99.99,,,0.00,weatherlink.com 1.10,2013-01-25 13:54:00,
2013-01-25 09:08:00,18.2,12.0,30.16,SE,146,0.0,-999.0,75,-99.99,,,0.00,weatherlink.com 1.10,2013-01-25 14:08:00,
2013-01-25 09:24:00,18.4,12.0,30.16,SSE,153,3.0,-999.0,76,-99.99,,,0.00,weatherlink.com 1.10,2013-01-25 14:24:00,
2013-01-25 09:39:00,18.6,13.0,30.14,ESE,111,0.0,-999.0,77,-99.99,,,0.00,weatherlink.com 1.10,2013-01-25 14:39:00,
2013-01-25 09:53:00,18.9,13.0,30.14,ESE,107,0.0,-999.0,78,-99.99,,,0.00,weatherlink.com 1.10,2013-01-25 14:53:00,
2013-01-25 10:08:00,19.0,13.0,30.14,SE,126,0.0,-999.0,78,-99.99,,,0.00,weatherlink.com 1.10,2013-01-25 15:08:00,
2013-01-25 10:24:00,19.3,14.0,30.14,SE,129,0.0,-999.0,79,-99.99,,,0.00,weatherlink.com 1.10,2013-01-25 15:24:00,
2013-01-25 10:39:00,19.7,14.0,30.12,SE,135,0.0,-999.0,79,-99.99,,,0.00,weatherlink.com 1.10,2013-01-25 15:39:00,
2013-01-25 10:53:00,19.7,15.0,30.11,South,171,3.0,-999.0,80,-99.99,,,0.00,weatherlink.com 1.10,2013-01-25 15:53:00,
2013-01-25 11:09:00,20.2,15.0,30.12,ESE,116,1.0,-999.0,80,-99.99,,,0.00,weatherlink.com 1.10,2013-01-25 16:09:00,
2013-01-25 11:23:00,20.3,15.0,30.11,SSE,153,1.0,-999.0,80,-99.99,,,0.00,weatherlink.com 1.10,2013-01-25 16:23:00,
2013-01-25 11:39:00,20.3,15.0,30.10,SSE,165,0.0,-999.0,80,-99.99,,,0.00,weatherlink.com 1.10,2013-01-25 16:39:00,
2013-01-25 11:53:00,20.8,16.0,30.08,South,178,4.0,-999.0,80,-99.99,,,0.00,weatherlink.com 1.10,2013-01-25 16:53:00,
2013-01-25 12:08:00,21.4,16.0,30.08,SSE,161,0.0,-999.0,80,-99.99,,,0.00,weatherlink.com 1.10,2013-01-25 17:08:00,
2013-01-25 12:24:00,21.7,16.0,30.07,SSE,148,1.0,-999.0,80,-99.99,,,0.00,weatherlink.com 1.10,2013-01-25 17:24:00,
2013-01-25 12:39:00,21.4,16.0,30.07,SSW,208,4.0,-999.0,79,-99.99,,,0.00,weatherlink.com 1.10,2013-01-25 17:39:00,
2013-01-25 12:53:00,21.5,16.0,30.06,SW,216,0.0,-999.0,79,-99.99,,,0.01,weatherlink.com 1.10,2013-01-25 17:53:00,
2013-01-25 13:09:00,21.7,16.0,30.05,SSW,213,5.0,-999.0,79,-99.99,,,0.01,weatherlink.com 1.10,2013-01-25 18:09:00,
2013-01-25 13:23:00,21.6,16.0,30.04,SW,217,5.0,-999.0,79,-99.99,,,0.01,weatherlink.com 1.10,2013-01-25 18:23:00,
2013-01-25 13:38:00,21.8,16.0,30.03,South,186,4.0,-999.0,79,-99.99,,,0.02,weatherlink.com 1.10,2013-01-25 18:38:00,
2013-01-25 13:53:00,22.2,17.0,30.02,SW,217,6.0,-999.0,79,-99.99,,,0.02,weatherlink.com 1.10,2013-01-25 18:53:00,
2013-01-25 14:08:00,22.1,17.0,30.01,SSW,207,6.0,-999.0,79,-99.99,,,0.02,weatherlink.com 1.10,2013-01-25 19:08:00,
2013-01-25 14:23:00,22.1,17.0,30.01,SSW,205,7.0,-999.0,79,-99.99,,,0.02,weatherlink.com 1.10,2013-01-25 19:23:00,
2013-01-25 14:39:00,22.1,17.0,30.01,SW,220,3.0,-999.0,79,-99.99,,,0.02,weatherlink.com 1.10,2013-01-25 19:39:00,
2013-01-25 14:54:00,22.0,16.0,30.00,SW,222,2.0,-999.0,79,-99.99,,,0.02,weatherlink.com 1.10,2013-01-25 19:54:00,
2013-01-25 15:09:00,22.3,17.0,30.00,SSW,208,4.0,-999.0,79,-99.99,,,0.02,weatherlink.com 1.10,2013-01-25 20:09:00,
2013-01-25 15:24:00,22.2,17.0,30.00,SSW,212,3.0,-999.0,79,-99.99,,,0.02,weatherlink.com 1.10,2013-01-25 20:24:00,
2013-01-25 15:38:00,22.3,17.0,29.99,South,187,4.0,-999.0,79,-99.99,,,0.02,weatherlink.com 1.10,2013-01-25 20:38:00,
2013-01-25 15:53:00,22.5,17.0,29.99,SW,218,5.0,-999.0,80,-99.99,,,0.02,weatherlink.com 1.10,2013-01-25 20:53:00,
2013-01-25 16:09:00,22.5,17.0,29.99,SSW,194,3.0,-999.0,80,-99.99,,,0.02,weatherlink.com 1.10,2013-01-25 21:09:00,
2013-01-25 16:23:00,22.7,17.0,30.00,SW,221,6.0,-999.0,80,-99.99,,,0.02,weatherlink.com 1.10,2013-01-25 21:23:00,
2013-01-25 16:38:00,22.7,17.0,30.01,SSW,213,4.0,-999.0,80,-99.99,,,0.02,weatherlink.com 1.10,2013-01-25 21:38:00,
2013-01-25 16:53:00,22.7,17.0,30.01,SW,229,3.0,-999.0,80,-99.99,,,0.02,weatherlink.com 1.10,2013-01-25 21:53:00,
2013-01-25 17:09:00,22.8,18.0,30.01,SSW,208,3.0,-999.0,80,-99.99,,,0.02,weatherlink.com 1.10,2013-01-25 22:09:00,
2013-01-25 17:24:00,22.9,18.0,30.01,SW,219,4.0,-999.0,80,-99.99,,,0.02,weatherlink.com 1.10,2013-01-25 22:24:00,
2013-01-25 17:39:00,22.9,18.0,30.00,SW,223,3.0,-999.0,80,-99.99,,,0.02,weatherlink.com 1.10,2013-01-25 22:39:00,
2013-01-25 17:53:00,22.9,18.0,30.00,WSW,242,3.0,-999.0,80,-99.99,,,0.02,weatherlink.com 1.10,2013-01-25 22:53:00,
2013-01-25 18:08:00,23.0,18.0,30.00,SW,215,2.0,-999.0,80,-99.99,,,0.02,weatherlink.com 1.10,2013-01-25 23:08:00,
2013-01-25 18:24:00,23.0,18.0,30.00,SSW,208,3.0,-999.0,80,-99.99,,,0.02,weatherlink.com 1.10,2013-01-25 23:24:00,
2013-01-25 18:38:00,23.1,18.0,30.00,SW,215,4.0,-999.0,81,-99.99,,,0.02,weatherlink.com 1.10,2013-01-25 23:38:00,
2013-01-25 18:53:00,23.2,18.0,30.01,SSW,213,6.0,-999.0,80,-99.99,,,0.02,weatherlink.com 1.10,2013-01-25 23:53:00,
2013-01-25 19:09:00,23.3,18.0,30.02,WSW,243,0.0,-999.0,81,-99.99,,,0.02,weatherlink.com 1.10,2013-01-26 00:09:00,
2013-01-25 19:23:00,23.3,18.0,30.02,WSW,256,0.0,-999.0,81,-99.99,,,0.02,weatherlink.com 1.10,2013-01-26 00:23:00,
2013-01-25 19:39:00,23.4,18.0,30.03,SSW,207,4.0,-999.0,81,-99.99,,,0.02,weatherlink.com 1.10,2013-01-26 00:39:00,
2013-01-25 19:54:00,23.3,18.0,30.04,SSW,206,4.0,-999.0,81,-99.99,,,0.02,weatherlink.com 1.10,2013-01-26 00:54:00,
2013-01-25 20:09:00,23.4,18.0,30.04,SW,225,5.0,-999.0,81,-99.99,,,0.02,weatherlink.com 1.10,2013-01-26 01:09:00,
2013-01-25 20:24:00,23.5,19.0,30.04,SW,223,9.0,-999.0,81,-99.99,,,0.02,weatherlink.com 1.10,2013-01-26 01:24:00,
2013-01-25 20:39:00,23.5,19.0,30.03,SW,220,6.0,-999.0,81,-99.99,,,0.02,weatherlink.com 1.10,2013-01-26 01:39:00,
2013-01-25 20:54:00,23.5,19.0,30.04,SW,219,6.0,-999.0,81,-99.99,,,0.02,weatherlink.com 1.10,2013-01-26 01:54:00,
2013-01-25 21:09:00,23.4,19.0,30.04,SW,225,3.0,-999.0,82,-99.99,,,0.02,weatherlink.com 1.10,2013-01-26 02:09:00,
2013-01-25 21:24:00,23.4,19.0,30.04,WSW,242,4.0,-999.0,82,-99.99,,,0.02,weatherlink.com 1.10,2013-01-26 02:24:00,
2013-01-25 21:39:00,23.5,19.0,30.03,SW,232,4.0,-999.0,82,-99.99,,,0.02,weatherlink.com 1.10,2013-01-26 02:39:00,
2013-01-25 21:54:00,23.5,19.0,30.04,SW,234,6.0,-999.0,83,-99.99,,,0.02,weatherlink.com 1.10,2013-01-26 02:54:00,
2013-01-25 22:09:00,23.6,19.0,30.03,SSW,213,3.0,-999.0,83,-99.99,,,0.02,weatherlink.com 1.10,2013-01-26 03:09:00,
2013-01-25 22:24:00,23.8,19.0,30.04,SW,222,3.0,-999.0,83,-99.99,,,0.02,weatherlink.com 1.10,2013-01-26 03:24:00,
2013-01-25 22:39:00,23.8,19.0,30.04,SW,216,4.0,-999.0,83,-99.99,,,0.02,weatherlink.com 1.10,2013-01-26 03:39:00,
2013-01-25 22:54:00,23.9,20.0,30.03,SW,221,5.0,-999.0,84,-99.99,,,0.02,weatherlink.com 1.10,2013-01-26 03:54:00,
2013-01-25 23:09:00,24.0,20.0,30.03,SW,217,3.0,-999.0,84,-99.99,,,0.02,weatherlink.com 1.10,2013-01-26 04:09:00,
2013-01-25 23:24:00,24.1,20.0,30.03,SW,220,5.0,-999.0,84,-99.99,,,0.02,weatherlink.com 1.10,2013-01-26 04:24:00,
2013-01-25 23:39:00,24.3,20.0,30.04,SSW,206,3.0,-999.0,84,-99.99,,,0.02,weatherlink.com 1.10,2013-01-26 04:39:00,
2013-01-25 23:54:00,24.4,20.0,30.04,SW,221,2.0,-999.0,84,-99.99,,,0.02,weatherlink.com 1.10,2013-01-26 04:54:00,